Home   Weather   Tychy   Past weeks

Flag for Poland Past Weather in Tychy, Poland — Yesterday and Last 2 Weeks

Now
52 °F

Passing clouds.


Feels Like: 48 °F
Forecast: 36 / 54 °F
Wind: 10 mph from Southwest

Location: Katowice Airport

Current Time: Apr 29, 2017 at 4:04:31 pm

Latest Report: Apr 29, 2017 at 3:30 pm


Visibility: N/A

Pressure: 30.01 "Hg

Humidity: 50%

Dew Point: 34 °F

Location of TychyLocation

Past Weather in Tychy — Graph

°F

Tychy Temperature Yesterday

Maximum temperature yesterday: 41 °F (at 10:30 am)
Minimum temperature yesterday: 37 °F (at 12:00 am)
Average temperature yesterday: 39 °F

High & Low Weather Summary for the Past Weeks

 TemperatureHumidityPressure
High59 °F (Apr 25, 1:30 pm)100% (Apr 17, 1:00 am)30.39 "Hg (Apr 17, 1:00 am)
Low25 °F (Apr 21, 2:00 am)38% (Apr 24, 5:00 pm)29.68 "Hg (Apr 25, 10:30 am)
Average40 °F77%29.97 "Hg
* Reported Apr 14 2:00 pm — Apr 29 2:30 pm, Tychy, Weather by CustomWeather, © 2017

Note: Actual official high and low records may vary slightly from our data, if they occured in-between our weather recording intervals... More about our weather records

Advertising

Tychy Weather History for the Previous 24 Hours

Scroll right to see more
 ConditionsComfort  
Time TempWeatherWind HumidityBarometerVisibility
2:30 pm
Sat, Apr 29
50 °FScattered clouds.7 mph50%30.01 "HgN/A
2:00 pm52 °FPassing clouds.7 mph44%30.01 "HgN/A
1:30 pm52 °FScattered clouds.9 mph50%30.01 "HgN/A
1:00 pm50 °FScattered clouds.8 mph54%30.01 "HgN/A
12:30 pm48 °FPartly sunny.8 mph50%30.01 "HgN/A
12:00 pm50 °FBroken clouds.9 mph58%30.01 "HgN/A
11:30 am48 °FBroken clouds.10 mph62%30.01 "HgN/A
11:00 am46 °FBroken clouds.9 mph71%30.01 "HgN/A
10:30 am46 °FBroken clouds.12 mph76%30.01 "HgN/A
9:30 am41 °FBroken clouds.9 mph87%29.98 "HgN/A
9:00 am41 °FBroken clouds.12 mph87%29.98 "HgN/A
8:30 am39 °FMostly cloudy.10 mph93%29.98 "HgN/A
8:00 am39 °FMostly cloudy.8 mph87%29.95 "HgN/A
7:30 am37 °FMostly cloudy.10 mph93%29.95 "HgN/A
7:00 am37 °FMostly cloudy.10 mph93%29.95 "HgN/A
6:30 am37 °FMostly cloudy.10 mph93%29.92 "HgN/A
6:00 am37 °FBroken clouds.13 mph93%29.92 "HgN/A
5:30 am37 °FMore clouds than sun.12 mph93%29.89 "HgN/A
5:00 am37 °FMostly cloudy.10 mph93%29.89 "HgN/A
4:30 am37 °FMostly cloudy.10 mph93%29.89 "HgN/A
4:00 am37 °FLight rain. Mostly cloudy.12 mph93%29.86 "HgN/A
3:00 am37 °FLight rain. Mostly cloudy.9 mph100%29.86 "Hg5 mi
2:30 am37 °FLight rain. Mostly cloudy.9 mph93%29.86 "HgN/A
2:00 am37 °FLight rain. Mostly cloudy.8 mph93%29.83 "HgN/A
1:30 am37 °FLight rain. Fog.9 mph93%29.83 "Hg3 mi
1:00 am37 °FLight rain. Partly cloudy.7 mph93%29.83 "Hg4 mi
12:30 am37 °FLight rain. Mostly cloudy.8 mph100%29.83 "Hg4 mi
12:00 am37 °FLight rain. Mostly cloudy.6 mph100%29.80 "HgN/A
11:30 pm
Fri, Apr 28
37 °FOvercast.6 mph100%29.80 "Hg6 mi
11:00 pm37 °FDrizzle. Mostly cloudy.8 mph100%29.80 "Hg4 mi
10:30 pm37 °FLight rain. Mostly cloudy.5 mph100%29.80 "HgN/A
10:00 pm37 °FLight rain. Partly cloudy.6 mph100%29.80 "Hg6 mi
9:30 pm37 °FLight rain. Mostly cloudy.3 mph100%29.77 "Hg4 mi
9:00 pm37 °FLight rain. Partly cloudy.6 mph100%29.80 "Hg5 mi
8:30 pm37 °FLight rain. Partly cloudy.3 mph100%29.80 "Hg5 mi
8:00 pm37 °FLight rain. Partly cloudy.6 mph100%29.80 "HgN/A
7:30 pm37 °FLight rain. Cloudy.7 mph100%29.77 "Hg4 mi
7:00 pm39 °FLight rain. More clouds than sun.7 mph93%29.80 "Hg4 mi
6:30 pm39 °FLight rain. More clouds than sun.6 mph93%29.80 "HgN/A
6:00 pm39 °FLight rain. Mostly cloudy.7 mph93%29.77 "Hg4 mi
5:30 pm39 °FLight rain. Mostly cloudy.6 mph93%29.77 "HgN/A
5:00 pm39 °FLight rain. More clouds than sun.7 mph93%29.77 "HgN/A
4:30 pm39 °FLight rain. Mostly cloudy.6 mph93%29.77 "Hg5 mi
4:00 pm39 °FLight rain. More clouds than sun.9 mph93%29.77 "HgN/A
Weather by CustomWeather, © 2017

See weather overviewHow to use our weather pages